钟子号卫星2组 02星 (NINGXIA-1 7)

导读

NINGXIA-1 7是中国于2021年7月9日发射的宁夏一号系列卫星,归属宁夏金汇信息技术公司运营,属于商业遥感卫星范畴。该卫星延续宁夏一号星座技术路线,主要承担无线电频谱监测、交通态势观测及信号情报采集任务,可为国土监测、智慧城市管理等领域提供数据支撑,进一步完善了我国商业遥感卫星网络布局,推动商业航天应用落地。

Basic Information
目录编号:
49019
目录名称:
NINGXIA-1 7
国际标识:
2021-064B
轨道中心:
EARTH
卫星名称:
钟子号卫星2组 02星
卫星全名:
钟子号卫星2组 02星 (NINGXIA-1 7)
卫星状态:
在轨 (已飞行1831 天)
发射日期:
2021-07-09 UTC
国别 :
中国 (CN)
星等 :
--
Orbit Information
数据来源 国际轨道数据 AOE轨道数据
星历时间 2026-07-14T04:35:56+0800
9小时前
查看轨道信息
2026-07-11T01:00:00+0800
3天前
查看轨道信息
半长轴 7242.467km 7242.463km
偏心率 0.0007317 0.0007388
轨道倾角 45.002° 45.002°
近地点辐角 359.392° 343.109°
升交点赤经 106.842° 121.079°
平近点角 0.691° 229.109°
近地点 859.03km 858.975km
远地点 869.63km 869.677km
周期 102.233分钟 102.233分钟
每日圈数 14.085524 14.085536
Detailed Information
平衡模式:
三轴稳定
覆盖范围:
全球
运营商:
夏威夷科学技术博物馆
运营商所在国:
美国
制造商(研发单位):
中国东方红卫星股份有限公司
制造商所在国:
中国
使用方式:
暂无
Satellite Introduction
钟子号卫星星座(Zhongzi)是由宁夏金硅信息技术有限公司自主投资建设的商业航天项目,卫星由五院所属航天东方红卫星有限公司抓总研制,主要应用于遥感探测等领域。该卫星仍在工作。
2D Orbit Map
3D Orbit Map
Orbit Altitude Analysis Chart
Orbit Inclination Analysis Chart
Orbit Comprehensive Analysis Chart
View Comprehensive Chart